• In Hungary
  • List of Countries
  • For 7 days
  • Water Temperature
  • Satellite Maps
  • Weather Map
  • News
  • Weather Widgets
  • user-avatar
    Login

    Hourly Weather Hat Yai

    Today, 22 September, Friday

    Time Temperature Precipitation Wind Pressure Humidity
    00:00 +26°C° 0.9 mm 4 mps 752 mmHg 95%
    01:00 +26°C° 0 mm 3 mps 752 mmHg 95%
    02:00 +26°C° 0.3 mm 4 mps 752 mmHg 95%
    03:00 +26°C° 0.3 mm 4 mps 752 mmHg 95%
    04:00 +26°C° 0.3 mm 4 mps 752 mmHg 95%
    05:00 +26°C° 0.5 mm 4 mps 752 mmHg 95%
    06:00 +26°C° 0.5 mm 4 mps 752 mmHg 95%
    07:00 +26°C° 0 mm 2 mps 752 mmHg 95%
    08:00 +27°C° 0.4 mm 3 mps 753 mmHg 92%
    09:00 +28°C° 0.4 mm 3 mps 753 mmHg 89%
    10:00 +28°C° 0.4 mm 4 mps 753 mmHg 86%
    11:00 +29°C° 0.7 mm 4 mps 753 mmHg 86%
    12:00 +29°C° 0.7 mm 5 mps 753 mmHg 86%
    13:00 +29°C° 0 mm 4 mps 752 mmHg 86%
    14:00 +29°C° 0.4 mm 4 mps 752 mmHg 85%
    15:00 +29°C° 0.4 mm 5 mps 752 mmHg 83%
    16:00 +29°C° 0.4 mm 5 mps 751 mmHg 82%
    17:00 +28°C° 0 mm 4 mps 751 mmHg 85%
    18:00 +27°C° 0 mm 4 mps 752 mmHg 89%
    19:00 +26°C° 0 mm 3 mps 752 mmHg 92%
    20:00 +26°C° 0 mm 3 mps 752 mmHg 93%
    21:00 +26°C° 0 mm 3 mps 753 mmHg 93%
    22:00 +26°C° 0 mm 3 mps 753 mmHg 94%
    23:00 +26°C° 0 mm 3 mps 753 mmHg 95%

    Tomorrow, 23 September, Saturday

    Time Temperature Precipitation Wind Pressure Humidity
    00:00 +26°C° 0 mm 3 mps 753 mmHg 95%
    01:00 +25°C° 0 mm 2 mps 753 mmHg 96%
    02:00 +25°C° 0 mm 2 mps 753 mmHg 96%
    03:00 +25°C° 0 mm 2 mps 753 mmHg 96%
    04:00 +25°C° 0 mm 2 mps 752 mmHg 96%
    05:00 +26°C° 0.1 mm 2 mps 753 mmHg 95%
    06:00 +26°C° 0.1 mm 2 mps 753 mmHg 95%
    07:00 +26°C° 0.1 mm 2 mps 753 mmHg 94%
    08:00 +27°C° 0 mm 3 mps 754 mmHg 87%
    09:00 +29°C° 0 mm 3 mps 754 mmHg 81%
    10:00 +30°C° 0 mm 3 mps 754 mmHg 74%
    11:00 +32°C° 0 mm 4 mps 754 mmHg 70%
    12:00 +33°C° 0 mm 4 mps 753 mmHg 67%
    13:00 +34°C° 0 mm 4 mps 753 mmHg 63%
    14:00 +33°C° 0.1 mm 4 mps 752 mmHg 66%
    15:00 +33°C° 0.1 mm 4 mps 752 mmHg 69%
    16:00 +32°C° 0.1 mm 4 mps 752 mmHg 71%
    17:00 +30°C° 0 mm 4 mps 752 mmHg 75%
    18:00 +29°C° 0 mm 3 mps 752 mmHg 79%
    19:00 +28°C° 0 mm 3 mps 752 mmHg 84%
    20:00 +27°C° 0 mm 3 mps 753 mmHg 85%
    21:00 +27°C° 0 mm 3 mps 754 mmHg 87%
    22:00 +26°C° 0 mm 2 mps 754 mmHg 89%
    23:00 +26°C° 0 mm 2 mps 754 mmHg 89%

    Day after tomorrow, 24 September, Sunday

    Time Temperature Precipitation Wind Pressure Humidity
    00:00 +26°C° 0 mm 2 mps 754 mmHg 89%
    01:00 +26°C° 0 mm 2 mps 753 mmHg 90%
    02:00 +26°C° 0.1 mm 2 mps 753 mmHg 91%
    03:00 +26°C° 0.1 mm 2 mps 753 mmHg 92%
    04:00 +26°C° 0.1 mm 2 mps 752 mmHg 93%
    05:00 +26°C° 0.1 mm 2 mps 753 mmHg 92%
    06:00 +26°C° 0.1 mm 2 mps 753 mmHg 92%
    07:00 +27°C° 0.1 mm 2 mps 753 mmHg 92%
    08:00 +28°C° 0 mm 3 mps 754 mmHg 84%
    09:00 +30°C° 0 mm 3 mps 754 mmHg 76%
    10:00 +33°C° 0 mm 3 mps 754 mmHg 68%
    11:00 +33°C° 0 mm 3 mps 754 mmHg 64%
    12:00 +34°C° 0 mm 4 mps 753 mmHg 60%
    13:00 +35°C° 0 mm 4 mps 752 mmHg 56%
    14:00 +34°C° 0.1 mm 4 mps 752 mmHg 58%
    15:00 +34°C° 0.1 mm 4 mps 751 mmHg 60%
    16:00 +33°C° 0.1 mm 4 mps 750 mmHg 63%
    17:00 +31°C° 0 mm 3 mps 751 mmHg 69%
    18:00 +29°C° 0 mm 3 mps 751 mmHg 75%
    19:00 +28°C° 0 mm 3 mps 752 mmHg 82%
    20:00 +27°C° 0 mm 2 mps 752 mmHg 84%
    21:00 +27°C° 0 mm 2 mps 753 mmHg 86%
    22:00 +27°C° 0 mm 2 mps 754 mmHg 88%
    23:00 +27°C° 0 mm 2 mps 753 mmHg 89%

    25 September, Monday

    Time Temperature Precipitation Wind Pressure Humidity
    00:00 +26°C° 0 mm 2 mps 753 mmHg 90%
    01:00 +26°C° 0 mm 2 mps 752 mmHg 91%
    02:00 +26°C° 0.1 mm 2 mps 752 mmHg 92%
    03:00 +26°C° 0.1 mm 2 mps 752 mmHg 93%
    04:00 +26°C° 0.1 mm 2 mps 751 mmHg 93%
    05:00 +26°C° 0.1 mm 2 mps 752 mmHg 93%
    06:00 +27°C° 0.1 mm 2 mps 752 mmHg 92%
    07:00 +27°C° 0.1 mm 2 mps 752 mmHg 91%
    08:00 +29°C° 0 mm 2 mps 753 mmHg 83%
    09:00 +30°C° 0 mm 3 mps 753 mmHg 75%
    10:00 +33°C° 0 mm 4 mps 754 mmHg 66%
    11:00 +34°C° 0 mm 4 mps 753 mmHg 63%
    12:00 +34°C° 0 mm 5 mps 752 mmHg 59%
    13:00 +35°C° 0 mm 5 mps 752 mmHg 56%
    14:00 +34°C° 0.1 mm 5 mps 751 mmHg 58%
    15:00 +34°C° 0.1 mm 5 mps 750 mmHg 60%
    16:00 +33°C° 0.1 mm 5 mps 750 mmHg 61%
    17:00 +32°C° 0 mm 4 mps 750 mmHg 67%
    18:00 +29°C° 0 mm 4 mps 751 mmHg 73%
    19:00 +28°C° 0 mm 3 mps 752 mmHg 78%
    20:00 +28°C° 0 mm 3 mps 752 mmHg 80%
    21:00 +27°C° 0 mm 2 mps 753 mmHg 82%
    22:00 +27°C° 0 mm 2 mps 753 mmHg 84%
    23:00 +27°C° 0 mm 2 mps 753 mmHg 85%

    26 September, Tuesday

    Time Temperature Precipitation Wind Pressure Humidity
    00:00 +27°C° 0 mm 2 mps 752 mmHg 86%
    01:00 +27°C° 0 mm 2 mps 752 mmHg 87%
    02:00 +27°C° 0.3 mm 2 mps 752 mmHg 87%
    03:00 +27°C° 0.3 mm 2 mps 751 mmHg 88%
    04:00 +26°C° 0.3 mm 2 mps 751 mmHg 89%
    05:00 +27°C° 0.3 mm 2 mps 752 mmHg 89%
    06:00 +27°C° 0.3 mm 2 mps 752 mmHg 89%
    07:00 +27°C° 0.3 mm 2 mps 753 mmHg 90%
    08:00 +28°C° 0.2 mm 3 mps 753 mmHg 84%
    09:00 +30°C° 0.2 mm 3 mps 754 mmHg 78%
    10:00 +31°C° 0.2 mm 3 mps 754 mmHg 72%
    11:00 +33°C° 0.2 mm 4 mps 753 mmHg 68%
    12:00 +34°C° 0.2 mm 4 mps 752 mmHg 63%
    13:00 +35°C° 0.2 mm 4 mps 752 mmHg 59%
    14:00 +34°C° 0.2 mm 4 mps 751 mmHg 60%
    15:00 +34°C° 0.2 mm 4 mps 751 mmHg 61%
    16:00 +34°C° 0.2 mm 3 mps 751 mmHg 62%
    17:00 +31°C° 0 mm 3 mps 751 mmHg 67%
    18:00 +30°C° 0 mm 2 mps 752 mmHg 72%
    19:00 +28°C° 0 mm 2 mps 752 mmHg 78%
    20:00 +28°C° 0 mm 2 mps 753 mmHg 79%
    21:00 +28°C° 0 mm 2 mps 753 mmHg 81%
    22:00 +27°C° 0 mm 2 mps 754 mmHg 83%
    23:00 +27°C° 0 mm 2 mps 753 mmHg 84%

    27 September, Wednesday

    Time Temperature Precipitation Wind Pressure Humidity
    00:00 +27°C° 0 mm 1 mps 753 mmHg 85%
    01:00 +27°C° 0 mm 1 mps 753 mmHg 86%
    02:00 +26°C° 0.2 mm 1 mps 752 mmHg 87%
    03:00 +26°C° 0.2 mm 1 mps 752 mmHg 88%
    04:00 +26°C° 0.2 mm 1 mps 752 mmHg 89%
    05:00 +26°C° 0.2 mm 1 mps 753 mmHg 89%
    06:00 +27°C° 0.2 mm 1 mps 753 mmHg 88%
    07:00 +27°C° 0.2 mm 1 mps 754 mmHg 88%
    08:00 +28°C° 0 mm 1 mps 754 mmHg 80%
    09:00 +30°C° 0 mm 1 mps 754 mmHg 73%
    10:00 +30°C° 0 mm 0 mps 754 mmHg 65%
    11:00 +33°C° 0 mm 1 mps 754 mmHg 61%
    12:00 +34°C° 0 mm 1 mps 753 mmHg 56%
    13:00 +35°C° 0 mm 1 mps 752 mmHg 52%
    14:00 +34°C° 0 mm 1 mps 752 mmHg 53%
    15:00 +35°C° 0 mm 2 mps 751 mmHg 54%
    16:00 +35°C° 0 mm 2 mps 751 mmHg 56%
    17:00 +32°C° 0.1 mm 2 mps 751 mmHg 63%
    18:00 +30°C° 0.1 mm 1 mps 752 mmHg 71%
    19:00 +28°C° 0.1 mm 1 mps 752 mmHg 78%
    20:00 +28°C° 0 mm 1 mps 753 mmHg 80%
    21:00 +28°C° 0 mm 1 mps 753 mmHg 81%
    22:00 +27°C° 0 mm 1 mps 754 mmHg 83%
    23:00 +27°C° 0 mm 1 mps 754 mmHg 84%
    Show more